Vertical_Velocity
-2 -1 -2 -1 -1 -1 -0 2 5 1 -7 -8 -2 -4 -5 -5 -3 -2 1 -1 -2 -0 -0 -0 -2 -1 3 2 -3 -0 -1 3 -2 0 2 -2 1 4
-2 -1 -1 -1 -1 0 1 0 2 5 4 2 -8 -5 -3 -5 -4 -2 -5 -5 -5 -4 -2 -4 -2 -2 -1 -3 -0 -2 -4 0 9 -0 5 -5 4 -0
-1 -2 -1 -1 -2 -1 -0 1 -0 2 2 -7 2 -2 -3 -2 -7 -4 -3 -3 -4 -3 -4 -2 0 -1 -6 1 1 0 -2 -1 -1 -2 -1 -0 -0 -2
-1 -0 -1 -1 -1 1 1 -1 -0 1 4 1 -1 -3 -2 -5 -3 -2 -4 -2 -6 -5 -2 -3 -1 -3 -1 -2 -1 -2 1 3 0 3 -2 1 -2 -6
-0 -1 -2 -2 -1 -0 -0 -2 -0 1 -0 1 -6 -6 -3 -2 -7 -5 -4 -8 -0 -1 -3 -10 -1 -5 -0 2 -3 -0 3 -1 -3 -1 -3 -2 1 -6
0 -1 -2 -1 -1 -2 -0 -0 -3 -3 -1 -1 -4 -4 -4 -9 1 -4 -13 -1 -12 -2 5 -5 4 -8 -2 -1 1 -0 0 0 -2 -2 -2 -1 -1 -3
-1 -0 -1 -0 1 2 4 4 1 -0 1 3 -3 -1 -3 5 -2 -5 -3 -1 -14 3 -4 -12 -2 -0 -1 -4 -1 0 1 2 3 0 0 0 -0 -2
-2 -2 -1 -1 -0 0 -2 -3 1 6 5 -0 0 1 -4 -0 4 -1 -5 -2 -24 -1 0 -16 13 -9 -6 -1 -2 -2 0 -1 2 3 -0 -3 -3 -5
-3 -2 -2 0 -1 -3 -3 -2 -3 -3 3 5 -0 0 -1 2 6 -5 -4 4 -1 -5 10 -16 4 -17 7 -2 0 -2 -0 1 1 -0 -1 -2 -5 -3
-2 0 2 1 -0 1 2 4 1 -3 -5 -4 4 4 3 -1 7 14 8 2 -7 -7 12 -9 1 -14 -5 -3 -4 -0 0 -2 -1 1 2 -0 -3 -1
1 2 1 -1 -0 -2 8 -3 -3 -3 -1 0 -0 -1 0 -3 0 4 -5 3 -15 -8 -2 3 -5 -13 -4 -8 -6 -4 -1 4 3 -1 -0 -0 -1 0
-2 -2 -2 -0 -1 -1 -0 2 -2 -4 -5 -8 -6 -0 4 -3 2 6 4 -0 2 -10 1 11 0 5 -21 -7 -4 -0 -5 6 -1 1 1 1 3 2
-2 -2 -1 -1 -2 1 3 4 -2 1 -1 -3 -4 -4 -5 -2 -0 0 3 5 1 -5 1 18 -1 1 10 -12 -10 -4 -5 -2 -3 -2 3 3 3 8
-2 -1 -2 1 2 -2 2 -2 -0 7 -2 -3 -5 -4 -2 -2 -3 -1 3 4 5 2 -5 7 -1 9 8 -6 -10 -7 -1 -2 -1 -5 -2 -3 1 2
0 -0 0 -2 -2 -1 1 2 -1 -2 -2 -3 -3 -1 5 0 -2 -3 -1 3 -3 -2 1 4 6 -0 9 -1 -5 -18 -4 -9 -1 -3 -5 -5 -4 3
-2 0 1 3 3 2 -3 0 1 0 0 0 -2 0 -1 -4 -5 4 -5 -2 -5 -16 8 7 1 6 -2 3 8 -11 1 3 -2 2 2 -5 -3 2
3 -6 -4 -4 -5 -3 -1 -2 0 -1 -3 1 -0 -3 -4 -2 -5 3 2 -3 4 -2 -18 -6 5 6 6 6 -12 6 -4 -6 1 -6 4 -5 0 -5
-3 0 -3 -2 -2 -1 -3 -2 1 1 -1 -2 -2 -0 -2 -1 -3 -5 7 4 -2 -2 -5 -1 -5 -15 -7 -2 8 -7 -6 -2 1 1 8 3 -16 2
0 0 -0 -1 -0 -2 -2 -1 -4 0 -1 0 -0 0 -0 -2 3 -2 -2 2 -5 2 -1 0 -2 9 -0 -6 1 21 -1 1 1 -3 3 3 -3 -10
1 -2 -1 -1 0 -3 -3 -2 -3 -2 1 0 -1 2 5 3 -2 -1 1 0 -1 -5 -6 2 0 7 17 5 -6 -27 22 8 9 1 0 4 1 -4
-2 -1 1 1 -0 -2 -1 -1 0 -1 0 2 1 0 1 3 -1 2 0 6 7 4 -4 -3 3 8 7 -2 -2 -10 -14 10 12 9 2 3 -2 -3
-2 -1 -0 0 -2 -2 -2 -1 -3 -0 -1 1 1 2 1 3 0 0 2 -0 -1 2 -0 1 -0 -2 1 9 -1 -2 -8 -10 2 2 6 17 19 6
-1 -1 -0 -1 -0 0 -1 -2 0 -1 2 1 1 1 1 -1 4 3 1 2 2 -0 9 -7 -3 3 4 4 7 -3 -1 -5 -3 -11 -10 1 2 -0
Height
1491 1491 1490 1489 1488 1487 1485 1483 1481 1474 1467 1464 1464 1464 1462 1459 1455 1451 1447 1443 1439 1436 1433 1429 1425 1422 1418 1415 1412 1409 1406 1403 1401 1399 1397 1395 1394 1393
1486 1486 1485 1484 1483 1482 1480 1478 1476 1473 1465 1462 1459 1457 1454 1451 1447 1443 1439 1435 1431 1428 1424 1420 1416 1412 1409 1406 1402 1399 1395 1393 1390 1388 1386 1385 1383 1381
1482 1481 1480 1479 1478 1476 1474 1473 1470 1468 1461 1455 1454 1451 1448 1444 1440 1436 1432 1427 1422 1419 1415 1412 1408 1405 1401 1397 1393 1389 1385 1382 1379 1377 1375 1373 1371 1371
1477 1475 1475 1473 1472 1470 1468 1465 1464 1462 1458 1449 1448 1445 1442 1438 1433 1428 1423 1419 1415 1410 1408 1405 1400 1396 1391 1387 1383 1379 1375 1372 1369 1366 1364 1362 1360 1359
1472 1470 1469 1468 1466 1464 1462 1460 1458 1455 1451 1446 1440 1439 1434 1430 1424 1420 1416 1411 1407 1403 1399 1395 1390 1385 1381 1377 1373 1369 1365 1361 1358 1355 1353 1351 1349 1347
1467 1465 1464 1462 1460 1458 1456 1454 1450 1447 1444 1441 1436 1431 1427 1423 1419 1414 1407 1404 1398 1393 1389 1385 1380 1376 1370 1366 1362 1357 1353 1350 1347 1344 1342 1340 1338 1337
1463 1461 1459 1457 1456 1454 1451 1448 1445 1442 1439 1434 1429 1425 1420 1417 1413 1408 1402 1395 1389 1385 1377 1374 1369 1364 1359 1355 1350 1345 1342 1340 1337 1334 1331 1329 1327 1325
1457 1455 1454 1452 1450 1448 1446 1444 1442 1438 1434 1429 1423 1419 1415 1411 1407 1403 1396 1388 1376 1379 1372 1364 1362 1353 1349 1344 1340 1336 1333 1329 1326 1324 1321 1318 1316 1314
1452 1450 1448 1446 1444 1442 1439 1437 1435 1432 1429 1425 1418 1414 1408 1404 1400 1394 1388 1382 1375 1370 1366 1354 1352 1343 1339 1334 1331 1326 1322 1319 1315 1312 1310 1308 1306 1303
1448 1446 1444 1441 1439 1437 1434 1430 1427 1424 1421 1416 1412 1407 1403 1398 1393 1387 1381 1374 1367 1362 1360 1347 1342 1334 1327 1322 1319 1316 1312 1308 1306 1304 1301 1298 1295 1292
1443 1441 1439 1436 1434 1432 1428 1423 1419 1415 1412 1408 1404 1399 1396 1391 1387 1381 1374 1367 1356 1352 1351 1344 1334 1325 1317 1309 1307 1305 1302 1299 1296 1291 1288 1285 1282 1279
1437 1435 1433 1431 1429 1427 1424 1419 1412 1408 1403 1398 1394 1390 1386 1382 1379 1375 1368 1361 1354 1343 1343 1338 1329 1324 1306 1299 1298 1295 1290 1287 1283 1280 1276 1273 1271 1267
1432 1430 1428 1426 1424 1422 1418 1413 1407 1403 1398 1393 1388 1383 1379 1375 1370 1366 1361 1357 1348 1340 1335 1332 1322 1317 1313 1294 1285 1284 1281 1274 1271 1266 1264 1262 1259 1256
1429 1426 1423 1421 1418 1414 1410 1405 1402 1398 1392 1388 1383 1378 1373 1367 1362 1358 1353 1348 1342 1334 1326 1324 1316 1311 1303 1293 1279 1274 1271 1267 1262 1255 1252 1250 1246 1242
1424 1421 1418 1415 1411 1407 1403 1400 1396 1391 1387 1382 1377 1372 1367 1361 1355 1349 1344 1338 1331 1325 1320 1315 1309 1302 1296 1287 1277 1268 1260 1256 1253 1248 1243 1238 1233 1229
1419 1416 1413 1409 1405 1402 1397 1394 1390 1386 1382 1377 1372 1366 1360 1354 1348 1343 1335 1329 1322 1314 1311 1307 1301 1295 1287 1281 1274 1262 1256 1249 1242 1238 1234 1227 1222 1218
1416 1411 1407 1403 1399 1395 1392 1389 1386 1381 1376 1371 1366 1360 1354 1349 1342 1337 1330 1323 1317 1308 1300 1297 1293 1286 1279 1273 1264 1255 1248 1241 1235 1230 1225 1217 1209 1205
1410 1406 1402 1399 1396 1392 1388 1385 1381 1376 1371 1366 1361 1356 1350 1343 1336 1330 1325 1319 1310 1303 1296 1289 1282 1274 1266 1262 1259 1249 1241 1233 1227 1220 1215 1207 1196 1190
1407 1403 1399 1395 1392 1389 1386 1382 1376 1372 1367 1362 1357 1351 1344 1338 1333 1325 1319 1312 1305 1298 1291 1285 1278 1272 1261 1250 1243 1244 1234 1225 1217 1210 1204 1197 1187 1178
1402 1399 1395 1392 1389 1386 1383 1378 1372 1367 1362 1357 1351 1346 1340 1334 1326 1320 1313 1307 1300 1293 1286 1280 1274 1267 1261 1251 1237 1226 1226 1218 1211 1200 1191 1185 1177 1170
1398 1395 1392 1389 1386 1383 1379 1374 1369 1364 1358 1353 1347 1341 1335 1329 1321 1315 1309 1303 1298 1290 1282 1275 1269 1263 1255 1245 1235 1225 1216 1212 1205 1195 1186 1177 1167 1160
1396 1393 1390 1387 1384 1380 1375 1370 1365 1360 1354 1349 1343 1337 1330 1324 1317 1311 1305 1299 1292 1286 1279 1272 1264 1256 1249 1241 1232 1222 1211 1203 1197 1189 1182 1175 1166 1156
1393 1390 1388 1385 1381 1377 1372 1367 1362 1357 1351 1345 1339 1332 1326 1319 1314 1308 1302 1296 1289 1282 1277 1268 1260 1254 1246 1238 1229 1219 1209 1199 1190 1182 1175 1168 1161 1153